Location: Agadir-Ikarkaouin
(31.1503°N, 9.0246°W)
Time: 03:51:39
(UTC+00:00)

USA 238 - Pass Details

Date: 18 September 2020
Orbit: 1006 x 1206 km, 63.4° (Epoch: 15 October)

Event Time Altitude Azimuth Distance (km) Brightness Sun altitude
Rises 21:25:11 0° 332° (NNW) 3,991 7.4 -35.4°
Reaches altitude 10° 21:27:51 10° 334° (NNW) 3,055 6.6 -35.9°
Enters shadow 21:33:11 52° 348° (NNW) 1,440 4.4 -36.9°
